Location: Burleson Alternative School
(32.5290°N, 97.3406°W)
Time: 10:22:40
(UTC+00:00)

Vanguard 2 Rocket - Pass Details

Date: 11 November 2025
Orbit: 553 x 3287 km, 32.9° (Epoch: 07 December)

Event Time Altitude Azimuth Distance (km) Brightness Sun altitude
Rises 01:54:38 0° 255° (WSW) 2,826 10.6 -30.3°
Reaches altitude 10° 01:56:34 10° 254° (WSW) 2,036 9.5 -30.8°
Enters shadow 01:59:41 49° 246° (WSW) 975 7.2 -31.4°
